WD6FGE Weather Reports


Display with metric or nautical units.
time (UTC)temp
F
wind
direction
speed
MPH
gust
MPH
rain 1hr
in
rain 24hr
in
rain mn
in
humidity
%
barometer
mb
20180922094151 46 239 0.0 0.0 0.00 0.00 0.00 71 1014.0
20180922093156 47 239 0.0 0.0 0.00 0.00 0.00 70 1014.0
20180922092223 47 239 0.0 0.0 0.00 0.00 0.00 71 1014.0
20180922091242 47 239 0.0 0.0 0.00 0.00 0.00 70 1014.0
20180922090251 47 239 0.0 0.0 0.00 0.00 0.00 68 1014.1
20180922085259 48 203 0.0 0.0 0.00 0.00 0.00 68 1014.3
20180922084307 48 203 0.0 0.0 0.00 0.00 0.00 65 1014.3
20180922083240 49 203 0.0 0.0 0.00 0.00 0.00 65 1014.3
20180922082221 49 202 0.0 0.0 0.00 0.00 0.00 63 1014.4
20180922081226 50 202 0.0 1.0 0.00 0.00 0.00 64 1014.3
20180922080208 51 262 0.0 0.0 0.00 0.00 0.00 61 1014.1
20180922075223 51 262 0.0 0.0 0.00 0.00 0.00 61 1014.1
20180922074148 52 262 0.0 0.0 0.00 0.00 0.00 59 1014.3
20180922073118 53 262 0.0 0.0 0.00 0.00 0.00 56 1014.3
20180922072048 53 262 0.0 0.0 0.00 0.00 0.00 60 1014.3
20180922071042 53 262 0.0 0.0 0.00 0.00 0.00 58 1014.3
20180922070057 54 262 0.0 1.0 0.00 0.00 0.00 57 1014.3
20180922065025 55 262 0.0 0.0 0.00 0.00 0.00 56 1014.2
20180922064040 54 265 0.0 0.0 0.00 0.00 0.00 57 1014.1
20180922063006 55 265 0.0 0.0 0.00 0.00 0.00 54 1014.1
20180922062013 56 266 0.0 0.0 0.00 0.00 0.00 55 1014.0
20180922060948 57 265 0.0 0.0 0.00 0.00 0.00 52 1014.1
20180922055923 57 285 1.0 3.0 0.00 0.00 0.00 54 1014.0
20180922054942 57 265 1.0 4.0 0.00 0.00 0.00 52 1014.0
20180922053923 58 264 1.0 4.0 0.00 0.00 0.00 55 1014.0
20180922052915 57 250 1.0 3.0 0.00 0.00 0.00 48 1013.9
20180922051929 57 267 0.0 2.0 0.00 0.00 0.00 46 1013.9
20180922050941 58 267 0.0 1.0 0.00 0.00 0.00 45 1013.9
20180922045941 58 267 0.0 0.0 0.00 0.00 0.00 44 1013.9
20180922044907 59 267 0.0 1.0 0.00 0.00 0.00 43 1013.9
20180922043835 60 267 0.0 0.0 0.00 0.00 0.00 42 1013.9
20180922042808 60 267 0.0 0.0 0.00 0.00 0.00 42 1013.9
20180922041827 60 267 0.0 0.0 0.00 0.00 0.00 40 1013.9
20180922040845 61 267 0.0 1.0 0.00 0.00 0.00 39 1013.9
20180922035837 61 267 0.0 0.0 0.00 0.00 0.00 38 1013.8
20180922034808 62 267 0.0 0.0 0.00 0.00 0.00 36 1013.7
20180922033743 63 267 0.0 0.0 0.00 0.00 0.00 36 1013.6
20180922032739 64 267 0.0 0.0 0.00 0.00 0.00 35 1013.5
20180922031713 65 267 0.0 0.0 0.00 0.00 0.00 33 1013.4
20180922030706 66 270 0.0 0.0 0.00 0.00 0.00 32 1013.3
20180922025651 67 270 0.0 0.0 0.00 0.00 0.00 31 1013.2
20180922024650 68 270 0.0 5.0 0.00 0.00 0.00 31 1013.0
20180922023708 69 260 0.0 0.0 0.00 0.00 0.00 29 1012.9
20180922022659 71 260 0.0 1.0 0.00 0.00 0.00 28 1012.8
20180922021720 73 260 0.0 0.0 0.00 0.00 0.00 26 1012.7
20180922020724 75 261 0.0 3.0 0.00 0.00 0.00 25 1012.5
20180922015718 77 260 0.0 1.0 0.00 0.00 0.00 24 1012.6
20180922014712 77 248 0.0 1.0 0.00 0.00 0.00 24 1012.4
20180922013655 79 247 0.0 3.0 0.00 0.00 0.00 23 1012.4
20180922012701 79 309 0.0 2.0 0.00 0.00 0.00 22 1012.4
20180922011628 80 304 0.0 4.0 0.00 0.00 0.00 23 1012.3
20180922010645 80 298 0.0 4.0 0.00 0.00 0.00 23 1012.2
20180922005634 80 338 1.0 5.0 0.00 0.00 0.00 23 1012.2
20180922004654 81 250 1.0 5.0 0.00 0.00 0.00 22 1012.1
20180922003714 82 250 1.0 8.0 0.00 0.00 0.00 21 1012.2
20180922002643 82 224 2.0 14.0 0.00 0.00 0.00 21 1012.2
20180922001633 82 219 4.0 14.0 0.00 0.00 0.00 21 1012.3
20180922000648 82 235 2.0 13.0 0.00 0.00 0.00 20 1012.2
20180921235703 83 261 2.0 11.0 0.00 0.00 0.00 19 1012.3
20180921234629 83 163 5.0 12.0 0.00 0.00 0.00 19 1012.4
20180921233646 84 218 5.0 12.0 0.00 0.00 0.00 18 1012.5
20180921232706 84 265 4.0 16.0 0.00 0.00 0.00 19 1012.4
20180921231636 84 190 4.0 16.0 0.00 0.00 0.00 19 1012.4
20180921230635 85 259 4.0 15.0 0.00 0.00 0.00 18 1012.6
20180921225627 84 245 4.0 15.0 0.00 0.00 0.00 19 1012.7
20180921224611 85 252 4.0 14.0 0.00 0.00 0.00 19 1012.6
20180921223608 84 196 5.0 14.0 0.00 0.00 0.00 18 1012.7
20180921222534 84 78 4.0 11.0 0.00 0.00 0.00 19 1012.7
20180921221510 84 195 4.0 14.0 0.00 0.00 0.00 18 1012.8
20180921220459 84 196 3.0 12.0 0.00 0.00 0.00 17 1012.9
20180921215428 85 269 3.0 11.0 0.00 0.00 0.00 17 1012.8
20180921214417 85 247 4.0 15.0 0.00 0.00 0.00 18 1012.9
20180921213345 85 246 4.0 11.0 0.00 0.00 0.00 18 1013.0
20180921212349 85 311 4.0 10.0 0.00 0.00 0.00 19 1013.0
20180921211408 86 201 4.0 15.0 0.00 0.00 0.00 18 1013.1
20180921210338 86 211 5.0 15.0 0.00 0.00 0.00 19 1013.1
20180921205346 85 251 3.0 12.0 0.00 0.00 0.00 18 1013.2
20180921204410 85 203 4.0 14.0 0.00 0.00 0.00 19 1013.2
20180921203355 85 192 3.0 14.0 0.00 0.00 0.00 19 1013.4
20180921202347 84 300 3.0 9.0 0.00 0.00 0.00 20 1013.5
20180921201345 83 170 1.0 5.0 0.00 0.00 0.00 22 1013.6
20180921200320 82 205 2.0 5.0 0.00 0.00 0.00 22 1013.7
20180921195258 81 209 1.0 5.0 0.00 0.00 0.00 21 1014.0
20180921194302 80 269 2.0 7.0 0.00 0.00 0.00 21 1014.2
20180921193248 79 225 2.0 7.0 0.00 0.00 0.00 22 1014.4
20180921192249 78 186 1.0 2.0 0.00 0.00 0.00 21 1014.6
20180921191310 77 159 2.0 5.0 0.00 0.00 0.00 20 1014.7
20180921190331 76 134 1.0 5.0 0.00 0.00 0.00 20 1014.9
20180921185322 75 134 1.0 5.0 0.00 0.00 0.00 20 1014.9
20180921184258 74 338 0.0 4.0 0.00 0.00 0.00 21 1015.1
20180921183310 73 136 0.0 0.0 0.00 0.00 0.00 22 1015.3
20180921182312 72 180 1.0 5.0 0.00 0.00 0.00 22 1015.4
20180921181324 71 145 2.0 5.0 0.00 0.00 0.00 23 1015.5
20180921180311 70 138 1.0 4.0 0.00 0.00 0.00 24 1015.7
20180921175328 68 204 1.0 3.0 0.00 0.00 0.00 26 1015.8
20180921174307 67 196 1.0 6.0 0.00 0.00 0.00 27 1016.0
20180921173237 67 196 1.0 6.0 0.00 0.00 0.00 27 1016.1
20180921172253 65 194 0.0 3.0 0.00 0.00 0.00 28 1016.2
20180921171219 63 145 1.0 3.0 0.00 0.00 0.00 31 1016.3
20180921170243 62 130 1.0 3.0 0.00 0.00 0.00 32 1016.4
20180921165250 61 182 0.0 2.0 0.00 0.00 0.00 35 1016.5
20180921164226 59 207 0.0 1.0 0.00 0.00 0.00 39 1016.5
20180921163207 56 240 0.0 0.0 0.00 0.00 0.00 43 1016.5
20180921162229 53 240 0.0 0.0 0.00 0.00 0.00 48 1016.6
20180921161156 50 240 0.0 1.0 0.00 0.00 0.00 54 1016.7
20180921160151 46 241 0.0 0.0 0.00 0.00 0.00 61 1016.8
20180921155130 44 241 0.0 0.0 0.00 0.00 0.00 65 1016.9
20180921154135 42 241 0.0 0.0 0.00 0.00 0.00 67 1016.9
20180921153133 40 241 0.0 0.0 0.00 0.00 0.00 67 1016.9
20180921152146 39 241 0.0 0.0 0.00 0.00 0.00 68 1016.9
20180921151155 38 241 0.0 2.0 0.00 0.00 0.00 69 1016.9
20180921150158 37 246 0.0 1.0 0.00 0.00 0.00 76 1016.8
20180921145149 35 246 0.0 0.0 0.00 0.00 0.00 76 1016.7
20180921144117 34 246 0.0 0.0 0.00 0.00 0.00 76 1016.6
20180921143046 34 246 0.0 0.0 0.00 0.00 0.00 76 1016.6
20180921142110 34 246 0.0 0.0 0.00 0.00 0.00 77 1016.4
20180921141132 34 246 0.0 0.0 0.00 0.00 0.00 77 1016.3
20180921140144 34 246 0.0 0.0 0.00 0.00 0.00 76 1016.2
20180921135202 34 246 0.0 0.0 0.00 0.00 0.00 76 1016.2
20180921134225 34 246 0.0 0.0 0.00 0.00 0.00 74 1016.1
20180921133151 34 246 0.0 0.0 0.00 0.00 0.00 73 1015.9
20180921132146 34 246 0.0 0.0 0.00 0.00 0.00 74 1015.9
20180921131149 35 246 0.0 0.0 0.00 0.00 0.00 71 1015.8
20180921130155 35 246 0.0 0.0 0.00 0.00 0.00 71 1015.7
20180921125206 35 246 0.0 0.0 0.00 0.00 0.00 70 1015.7
20180921124138 35 246 0.0 0.0 0.00 0.00 0.00 70 1015.6
20180921123135 35 246 0.0 0.0 0.00 0.00 0.00 69 1015.7
20180921122117 36 246 0.0 0.0 0.00 0.00 0.00 68 1015.5
20180921121129 36 246 0.0 0.0 0.00 0.00 0.00 72 1015.4
20180921120113 36 246 0.0 0.0 0.00 0.00 0.00 70 1015.6
20180921115105 36 246 0.0 0.0 0.00 0.00 0.00 68 1015.5
20180921114032 37 246 0.0 0.0 0.00 0.00 0.00 65 1015.5
20180921113055 37 246 0.0 1.0 0.00 0.00 0.00 67 1015.4
20180921112032 37 246 0.0 0.0 0.00 0.00 0.00 68 1015.4
20180921111024 37 246 0.0 0.0 0.00 0.00 0.00 66 1015.3
20180921110005 37 246 0.0 0.0 0.00 0.00 0.00 64 1015.3
20180921105012 38 246 0.0 0.0 0.00 0.00 0.00 63 1015.3
20180921104026 38 246 0.0 0.0 0.00 0.00 0.00 64 1015.4
20180921103003 38 246 0.0 0.0 0.00 0.00 0.00 64 1015.3
20180921102021 39 246 0.0 0.0 0.00 0.00 0.00 67 1015.2
20180921101010 39 246 0.0 0.0 0.00 0.00 0.00 64 1015.3
20180921100000 39 246 0.0 0.0 0.00 0.00 0.00 63 1015.2
20180921094958 40 246 0.0 0.0 0.00 0.00 0.00 60 1015.2